M I D A S
Marine Information and Data Acquisition System
Tripno 2104 of the Zeeleeuw from 2011-05-17 06:26:39 to 2011-05-17 15:57:41
Back to CruiseResearch ActivitiesStationsMapUnderway DataData graphs

EquipmentUnitsComment
TimeDGPSUTC
LatitudeDGPSDM.mWGS84
LongitudeDGPSDM.mWGS84
TemperatureSBE03/SBE38deg celciusITS90
ConductivitySBE21S/mITS90
SalinitySBE21 Practical Salinity Units
ChlorophylAChelsea fluorimeterg/lCalibrated in Aceton
Missing or incorrect values are displayed as -999
Sea surface data collected by the RV Zeeleeuw from 2011-05-17 06:31:10 to 2011-05-17 15:59:54
Time Latitude Longitude Temperature Conductivity Salinity ChlorophylA
2011-05-17 06:32:19 51°13.62 2°56.051 18.5945 0.062759 0.359801 -3.020363
2011-05-17 06:33:18 51°13.619 2°56.061 18.6002 0.062759 0.359822 -3.020363
2011-05-17 06:34:16 51°13.615 2°56.068 18.6051 0.062759 0.359842 -3.020363
2011-05-17 06:35:15 51°13.614 2°56.07 18.6214 0.062759 0.359862 -3.020363
2011-05-17 06:36:15 51°13.613 2°56.069 18.6235 0.062759 0.359876 -3.020363
2011-05-17 06:37:17 51°13.625 2°56.022 18.6266 0.062759 0.359889 -3.020363
2011-05-17 06:38:18 51°13.645 2°55.944 18.5706 0.062759 0.359903 -3.020363
2011-05-17 06:39:18 51°13.658 2°55.902 18.6135 0.062759 0.35993 -3.020363
2011-05-17 06:40:18 51°13.683 2°55.841 18.6273 0.062759 0.359944 -3.020363
2011-05-17 06:41:18 51°13.704 2°55.775 18.6313 0.062759 0.359971 -3.020363
2011-05-17 06:42:17 51°13.711 2°55.742 18.6555 0.062657 0.359376 -3.020363
2011-05-17 06:43:18 51°13.707 2°55.73 18.6725 0.062759 0.359998 -3.020363
2011-05-17 06:44:18 51°13.7 2°55.735 18.6558 0.062759 0.360018 -3.020363
2011-05-17 06:45:18 51°13.72 2°55.72 18.6422 0.062759 0.360032 -3.020363
2011-05-17 06:46:16 51°13.806 2°55.651 18.5918 0.062657 0.359443 -3.020363
2011-05-17 06:47:16 51°13.923 2°55.567 18.6296 0.062657 0.359457 -3.020363
2011-05-17 06:48:16 51°14.045 2°55.48 18.6652 0.062657 0.359477 -3.020363
2011-05-17 06:49:18 51°14.168 2°55.387 18.7037 0.062657 0.359484 -3.020363
2011-05-17 06:50:18 51°14.305 2°55.261 18.6958 0.062657 0.359491 -3.020363
2011-05-17 06:51:18 51°14.455 2°55.115 18.6483 0.062657 0.359511 -3.020363
2011-05-17 06:52:18 51°14.602 2°54.928 18.6215 0.062657 0.359511 -3.020363
2011-05-17 06:53:16 51°14.759 2°54.739 18.5943 0.062657 0.359532 -3.020363
2011-05-17 06:54:16 51°14.927 2°54.543 18.5737 0.062657 0.359538 -3.020363
2011-05-17 06:55:14 51°15.081 2°54.342 18.569 0.062657 0.359559 -3.020363
2011-05-17 06:56:15 51°15.236 2°54.117 18.5441 0.062657 0.359566 -3.020363
2011-05-17 06:57:14 51°15.391 2°53.912 18.5706 0.062657 0.359593 -3.020363
2011-05-17 06:58:15 51°15.555 2°53.702 18.5695 0.062657 0.359627 -3.020363
2011-05-17 06:59:15 51°15.727 2°53.517 18.5738 0.062657 0.359613 -3.020363
2011-05-17 07:00:15 51°15.906 2°53.353 18.601 0.062657 0.35962 -3.020363
2011-05-17 07:01:15 51°16.08 2°53.182 18.5981 0.062657 0.359627 -3.020363
2011-05-17 07:02:14 51°16.253 2°53.02 18.5945 0.062657 0.35962 -3.020363
2011-05-17 07:03:14 51°16.439 2°52.89 18.6214 0.062657 0.35964 -3.020363
2011-05-17 07:04:14 51°16.624 2°52.761 18.6091 0.062657 0.359627 -3.020363
2011-05-17 07:05:14 51°16.805 2°52.636 18.6313 0.062657 0.359633 -3.020363
2011-05-17 07:06:13 51°16.991 2°52.579 18.6403 0.062657 0.359627 -3.020363
2011-05-17 07:07:15 51°17.187 2°52.526 18.6515 0.062657 0.359627 -3.020363
2011-05-17 07:08:14 51°17.37 2°52.521 18.6487 0.062657 0.35964 -3.020363
2011-05-17 07:09:13 51°17.54 2°52.639 18.6688 0.062657 0.35962 -3.020363
2011-05-17 07:10:14 51°17.706 2°52.792 18.676 0.062657 0.359647 -3.020363
2011-05-17 07:11:13 51°17.849 2°52.981 18.6924 0.062657 0.359613 -3.020363
2011-05-17 07:12:15 51°18.004 2°53.174 18.6977 0.062657 0.3596 -3.020363
2011-05-17 07:13:14 51°18.147 2°53.361 18.709 0.062657 0.359613 -3.020363
2011-05-17 07:14:14 51°18.295 2°53.546 18.7145 0.062657 0.3596 -3.020363
2011-05-17 07:15:13 51°18.443 2°53.722 18.7281 0.062657 0.359566 -3.020363
2011-05-17 07:16:15 51°18.575 2°53.956 18.7471 0.062657 0.3596 -3.020363
2011-05-17 07:17:14 51°18.7 2°54.178 18.7647 0.062657 0.359559 -3.020363
2011-05-17 07:18:13 51°18.821 2°54.402 18.7697 0.062657 0.359566 -3.020363
2011-05-17 07:19:15 51°18.926 2°54.663 18.7722 0.062657 0.359566 -3.020363
2011-05-17 07:20:14 51°19.011 2°54.924 18.7914 0.062657 0.359538 -3.020363
2011-05-17 07:21:14 51°19.098 2°55.191 18.799 0.062657 0.359538 -3.020363
2011-05-17 07:22:13 51°19.181 2°55.453 18.8144 0.062657 0.359504 -3.020363
2011-05-17 07:23:15 51°19.275 2°55.725 18.8177 0.062759 0.36012 -3.020363
2011-05-17 07:24:15 51°19.36 2°55.987 18.8412 0.062759 0.360114 -3.020363
2011-05-17 07:25:14 51°19.45 2°56.239 18.8608 0.062759 0.3601 -3.020363
2011-05-17 07:26:14 51°19.513 2°56.519 18.8777 0.062759 0.360066 -3.020363
2011-05-17 07:27:15 51°19.55 2°56.819 18.8979 0.062759 0.360066 -3.020363
2011-05-17 07:28:14 51°19.589 2°57.107 18.9237 0.062759 0.360046 -3.020363
2011-05-17 07:29:13 51°19.636 2°57.384 18.839 0.062759 0.360025 -3.020363
2011-05-17 07:30:14 51°19.694 2°57.672 18.8785 0.062759 0.360018 -3.020363
2011-05-17 07:31:14 51°19.74 2°57.965 18.862 0.062759 0.359991 -3.020363
2011-05-17 07:32:15 51°19.783 2°58.268 18.8853 0.062759 0.359971 -3.020363
2011-05-17 07:33:15 51°19.826 2°58.556 18.8715 0.062759 0.359957 -3.020363
2011-05-17 07:34:15 51°19.879 2°58.834 18.9037 0.062759 0.359917 -3.020363
2011-05-17 07:35:14 51°19.92 2°59.116 18.9163 0.062759 0.359917 -3.020363
2011-05-17 07:36:14 51°19.972 2°59.4 18.9264 0.062759 0.359883 -3.020363
2011-05-17 07:37:15 51°20.019 2°59.684 18.9367 0.062759 0.359862 -3.020363
2011-05-17 07:38:13 51°20.075 2°59.947 18.9525 0.062759 0.359828 -3.020363
2011-05-17 07:39:14 51°20.115 3°0.231 18.9578 0.062759 0.359822 -3.020363
2011-05-17 07:40:13 51°20.175 3°0.489 18.9761 0.062759 0.359801 -3.020363
2011-05-17 07:41:15 51°20.239 3°0.762 18.99 0.062759 0.359788 -3.020363
2011-05-17 07:42:15 51°20.307 3°1.025 19.0034 0.062759 0.359747 -3.020363
2011-05-17 07:43:14 51°20.371 3°1.289 19.0135 0.062759 0.359733 -3.020363
2011-05-17 07:44:14 51°20.428 3°1.562 19.0248 0.062759 0.359706 -3.020363
2011-05-17 07:45:15 51°20.491 3°1.838 19.036 0.062759 0.359699 -3.020363
2011-05-17 07:46:15 51°20.548 3°2.115 19.0492 0.062759 0.359638 -3.020363
2011-05-17 07:47:14 51°20.614 3°2.378 19.0586 0.062759 0.359645 -3.020363
2011-05-17 07:48:14 51°20.7 3°2.637 19.0669 0.062759 0.359645 -3.020363
2011-05-17 07:49:13 51°20.778 3°2.9 19.0813 0.062759 0.359564 -3.020363
2011-05-17 07:50:14 51°20.854 3°3.177 19.092 0.062862 0.360145 -3.020363
2011-05-17 07:51:14 51°20.936 3°3.447 19.1014 0.062862 0.360131 -3.020363
2011-05-17 07:52:14 51°21.01 3°3.72 19.1109 0.062862 0.360118 -3.020363
2011-05-17 07:53:14 51°21.088 3°3.988 19.1237 0.062862 0.360084 -3.020363
2011-05-17 07:54:13 51°21.164 3°4.258 19.1345 0.062862 0.360057 -3.020363
2011-05-17 07:55:15 51°21.245 3°4.54 19.1442 0.062862 0.360036 -3.020363
2011-05-17 07:56:14 51°21.331 3°4.804 19.1517 0.062862 0.360023 -3.020363
2011-05-17 07:57:15 51°21.418 3°5.074 19.1603 0.062862 0.359982 -3.020363
2011-05-17 07:58:14 51°21.495 3°5.342 19.1739 0.062862 0.359942 -3.020363
2011-05-17 07:59:15 51°21.573 3°5.625 19.1878 0.062862 0.359914 -3.020363
2011-05-17 08:00:14 51°21.651 3°5.894 19.1945 0.062862 0.359935 -3.020363
2011-05-17 08:01:14 51°21.719 3°6.176 19.2131 0.062862 0.359874 -3.020363
2011-05-17 08:02:14 51°21.774 3°6.461 19.2213 0.062862 0.35984 -3.020363
2011-05-17 08:03:14 51°21.831 3°6.749 19.2349 0.062862 0.359874 -3.020363
2011-05-17 08:04:14 51°21.893 3°7.032 19.2399 0.062862 0.359806 -3.020363
2011-05-17 08:05:13 51°21.923 3°7.216 19.2526 0.062862 0.359772 -3.020363
2011-05-17 08:06:15 51°21.916 3°7.329 19.2645 0.062862 0.359745 -3.020363
2011-05-17 08:07:14 51°21.87 3°7.407 19.267 0.062862 0.359732 -3.020363
2011-05-17 08:08:15 51°21.795 3°7.492 19.2764 0.062862 0.359711 -3.020363
2011-05-17 08:09:14 51°21.722 3°7.527 19.2942 0.062862 0.359678 -3.020363
2011-05-17 08:10:13 51°21.659 3°7.526 19.3017 0.062862 0.359657 -3.020363
2011-05-17 08:11:14 51°21.597 3°7.507 19.3102 0.062862 0.359651 -3.020363
2011-05-17 08:12:14 51°21.54 3°7.476 19.3227 0.062965 0.360224 -3.020363
2011-05-17 08:13:15 51°21.486 3°7.435 19.3287 0.062965 0.360217 -3.020363
2011-05-17 08:14:14 51°21.438 3°7.389 19.3421 0.062965 0.360183 -3.020363
2011-05-17 08:15:14 51°21.393 3°7.332 19.3522 0.062965 0.360197 -3.020363
2011-05-17 08:16:14 51°21.353 3°7.261 19.3575 0.062965 0.360183 -3.020363
2011-05-17 08:17:15 51°21.32 3°7.179 19.3676 0.062965 0.360183 -3.020363
2011-05-17 08:18:13 51°21.292 3°7.092 19.3846 0.062965 0.360183 -3.020363
2011-05-17 08:19:14 51°21.263 3°7.001 19.3964 0.062965 0.360197 -3.020363
2011-05-17 08:20:15 51°21.235 3°6.914 19.3989 0.062965 0.360197 -3.020363
2011-05-17 08:21:14 51°21.211 3°6.823 19.4113 0.062965 0.360204 -3.020363
2011-05-17 08:22:15 51°21.185 3°6.736 19.4211 0.062965 0.360197 -3.020363
2011-05-17 08:23:13 51°21.162 3°6.649 19.4355 0.062965 0.360177 -3.020363
2011-05-17 08:24:14 51°21.137 3°6.559 19.4456 0.062965 0.36017 -3.020363
2011-05-17 08:25:13 51°21.121 3°6.467 19.4545 0.062965 0.360156 -3.020363
2011-05-17 08:26:14 51°21.107 3°6.37 19.4605 0.062965 0.360136 -3.020363
2011-05-17 08:27:13 51°21.097 3°6.279 19.475 0.062965 0.360129 -3.020363
2011-05-17 08:28:14 51°21.084 3°6.185 19.4855 0.062965 0.360102 -3.020363
2011-05-17 08:29:15 51°21.068 3°6.09 19.4921 0.062965 0.360082 -3.020363
2011-05-17 08:30:14 51°21.051 3°5.999 19.5009 0.062965 0.360062 -3.020363
2011-05-17 08:31:14 51°21.032 3°5.906 19.5106 0.062965 0.360048 -3.020363
2011-05-17 08:32:14 51°21.024 3°5.809 19.5234 0.062965 0.360034 -3.020363
2011-05-17 08:33:14 51°21.024 3°5.713 19.5367 0.062965 0.360014 -3.020363
2011-05-17 08:34:14 51°21.033 3°5.622 19.5414 0.062965 0.360001 -3.020363
2011-05-17 08:35:14 51°21.059 3°5.547 19.5602 0.062965 0.35998 -3.020363
2011-05-17 08:36:13 51°21.103 3°5.466 19.5596 0.062965 0.359953 -3.020363
2011-05-17 08:37:14 51°21.159 3°5.389 19.5773 0.062965 0.35994 -3.020363
2011-05-17 08:38:13 51°21.223 3°5.332 19.5844 0.062965 0.359926 -3.020363
2011-05-17 08:39:14 51°21.289 3°5.274 19.5895 0.062965 0.359906 -3.020363
2011-05-17 08:40:15 51°21.356 3°5.239 19.6036 0.062965 0.359892 -3.020363
2011-05-17 08:41:14 51°21.42 3°5.238 19.6207 0.062965 0.359879 -3.020363
2011-05-17 08:42:14 51°21.469 3°5.289 19.6281 0.062965 0.359865 -3.020363
2011-05-17 08:43:14 51°21.482 3°5.387 19.6356 0.062965 0.359825 -3.020363
2011-05-17 08:44:14 51°21.48 3°5.492 19.6452 0.062965 0.359805 -3.020363
2011-05-17 08:45:14 51°21.46 3°5.578 19.6502 0.062965 0.359791 -3.020363
2011-05-17 08:46:13 51°21.433 3°5.649 19.6636 0.062965 0.359771 -3.020363
2011-05-17 08:47:13 51°21.39 3°5.705 19.6669 0.062965 0.359764 -3.020363
2011-05-17 08:48:15 51°21.345 3°5.737 19.6913 0.063068 0.360364 -3.020363
2011-05-17 08:49:14 51°21.302 3°5.751 19.6904 0.063068 0.360357 -3.020363
2011-05-17 08:50:14 51°21.26 3°5.756 19.6915 0.062965 0.359757 -3.020363
2011-05-17 08:51:14 51°21.215 3°5.756 19.707 0.063068 0.360357 -3.020363
2011-05-17 08:52:14 51°21.135 3°5.693 19.7289 0.063068 0.360364 -3.020363
2011-05-17 08:53:14 51°21.089 3°5.621 19.7266 0.063068 0.360357 -3.020363
2011-05-17 08:54:13 51°21.06 3°5.579 19.742 0.063068 0.360371 -3.020363
2011-05-17 08:55:14 51°21.038 3°5.556 19.7575 0.063068 0.360364 -3.020363
2011-05-17 08:56:14 51°21.004 3°5.507 19.7573 0.063068 0.360364 -3.020363
2011-05-17 08:57:13 51°20.961 3°5.38 19.7786 0.062965 0.359778 -3.020363
2011-05-17 08:58:14 51°20.914 3°5.258 19.7846 0.063068 0.360418 -3.020363
2011-05-17 08:59:14 51°20.892 3°5.19 19.781 0.063068 0.360425 -3.020363
2011-05-17 09:00:14 51°20.881 3°5.152 19.795 0.063068 0.360452 -3.020363
2011-05-17 09:01:13 51°20.874 3°5.134 19.8128 0.063068 0.360479 -3.020363
2011-05-17 09:02:15 51°20.884 3°5.109 19.8132 0.062965 0.359899 -3.020363
2011-05-17 09:03:14 51°20.912 3°5.119 19.8285 0.062965 0.35994 -3.020363
2011-05-17 09:04:14 51°20.917 3°5.181 19.846 0.062965 0.359953 -3.020363
2011-05-17 09:05:14 51°20.93 3°5.278 19.8471 0.062965 0.359947 -3.020363
2011-05-17 09:06:13 51°20.958 3°5.388 19.8631 0.062965 0.359967 -3.020363
2011-05-17 09:07:14 51°20.985 3°5.513 19.8578 0.062965 0.359974 -3.020363
2011-05-17 09:08:14 51°21.008 3°5.644 19.8759 0.062965 0.35998 -3.020363
2011-05-17 09:09:14 51°21.031 3°5.778 19.8748 0.062965 0.359987 -3.020363
2011-05-17 09:10:14 51°21.058 3°5.908 19.8956 0.062965 0.360001 -3.020363
2011-05-17 09:11:15 51°21.087 3°6.04 19.8957 0.062965 0.359994 -3.020363
2011-05-17 09:12:14 51°21.11 3°6.17 19.9111 0.062965 0.360001 -3.020363
2011-05-17 09:13:14 51°21.133 3°6.302 19.9204 0.062965 0.360001 -3.020363
2011-05-17 09:14:14 51°21.161 3°6.432 19.9271 0.062965 0.360007 -3.020363
2011-05-17 09:15:14 51°21.19 3°6.562 19.9432 0.062965 0.360001 -3.020363
2011-05-17 09:16:14 51°21.216 3°6.695 19.9339 0.062965 0.360001 -3.020363
2011-05-17 09:17:13 51°21.238 3°6.829 19.9659 0.062965 0.360007 -3.020363
2011-05-17 09:18:14 51°21.262 3°6.966 19.9567 0.062965 0.360001 -3.020363
2011-05-17 09:19:14 51°21.291 3°7.099 19.9802 0.062965 0.360007 -3.020363
2011-05-17 09:20:15 51°21.316 3°7.238 19.9768 0.062965 0.360007 -3.020363
2011-05-17 09:21:13 51°21.323 3°7.379 19.9978 0.062965 0.360014 -3.020363
2011-05-17 09:22:14 51°21.33 3°7.528 19.9903 0.062965 0.360014 -3.020363
2011-05-17 09:23:14 51°21.35 3°7.67 20.0078 0.062965 0.360014 -3.020363
2011-05-17 09:24:14 51°21.374 3°7.812 20.0189 0.062965 0.360021 -3.020363
2011-05-17 09:25:14 51°21.395 3°7.956 20.033 0.062965 0.360014 -3.020363
2011-05-17 09:26:14 51°21.412 3°8.104 20.03 0.062965 0.360021 -3.020363
2011-05-17 09:27:14 51°21.428 3°8.251 20.049 0.062965 0.360021 -3.020363
2011-05-17 09:28:13 51°21.447 3°8.396 20.0603 0.062965 0.360021 -3.020363
2011-05-17 09:29:15 51°21.472 3°8.547 20.0475 0.062965 0.360014 -3.020363
2011-05-17 09:30:14 51°21.497 3°8.691 20.0669 0.062965 0.360021 -3.020363
2011-05-17 09:31:15 51°21.517 3°8.843 20.0726 0.062965 0.360014 -3.020363
2011-05-17 09:32:14 51°21.535 3°8.992 20.0815 0.062965 0.360014 -3.020363
2011-05-17 09:33:14 51°21.556 3°9.142 20.0993 0.062965 0.360014 -3.020363
2011-05-17 09:34:15 51°21.603 3°9.237 20.1155 0.062965 0.360028 -3.020363
2011-05-17 09:35:14 51°21.656 3°9.237 20.1247 0.062965 0.360028 -3.020363
2011-05-17 09:36:14 51°21.691 3°9.184 20.1277 0.062965 0.360007 -3.020363
2011-05-17 09:37:13 51°21.697 3°9.112 20.1309 0.062965 0.360007 -3.020363
2011-05-17 09:38:14 51°21.674 3°9.033 20.1341 0.062965 0.360001 -3.020363
2011-05-17 09:39:14 51°21.661 3°8.94 20.139 0.062965 0.360021 -3.020363
2011-05-17 09:40:14 51°21.657 3°8.843 20.1503 0.062965 0.360034 -3.020363
2011-05-17 09:41:14 51°21.653 3°8.746 20.1606 0.062965 0.360048 -3.020363
2011-05-17 09:42:13 51°21.641 3°8.652 20.1575 0.062965 0.360062 -3.020363
2011-05-17 09:43:14 51°21.627 3°8.552 20.1675 0.062965 0.360075 -3.020363
2011-05-17 09:44:14 51°21.615 3°8.452 20.18 0.062965 0.360089 -3.020363
2011-05-17 09:45:14 51°21.605 3°8.355 20.1863 0.062965 0.360109 -3.020363
2011-05-17 09:46:14 51°21.595 3°8.258 20.1936 0.062965 0.360129 -3.020363
2011-05-17 09:47:14 51°21.58 3°8.162 20.202 0.062965 0.360143 -3.020363
2011-05-17 09:48:14 51°21.554 3°8.072 20.2112 0.062965 0.36017 -3.020363
2011-05-17 09:49:13 51°21.528 3°7.983 20.2093 0.062965 0.360183 -3.020363
2011-05-17 09:50:15 51°21.503 3°7.89 20.233 0.062965 0.360197 -3.020363
2011-05-17 09:51:14 51°21.485 3°7.798 20.2349 0.062965 0.360224 -3.020363
2011-05-17 09:52:15 51°21.464 3°7.7 20.2471 0.062965 0.360244 -3.020363
2011-05-17 09:53:14 51°21.444 3°7.606 20.2538 0.062965 0.360265 -3.020363
2011-05-17 09:54:15 51°21.42 3°7.508 20.2645 0.062965 0.360285 -3.020363
2011-05-17 09:55:13 51°21.393 3°7.418 20.2737 0.062965 0.360305 -3.020363
2011-05-17 09:56:14 51°21.369 3°7.325 20.2808 0.062965 0.360326 -3.020363
2011-05-17 09:57:13 51°21.352 3°7.23 20.2868 0.062965 0.360353 -3.020363
2011-05-17 09:58:14 51°21.329 3°7.081 20.2976 0.062965 0.36036 -3.020363
2011-05-17 09:59:15 51°21.367 3°6.825 20.3038 0.062965 0.360387 -3.020363
2011-05-17 10:00:14 51°21.5 3°6.596 20.3257 0.062965 0.360414 -3.020363
2011-05-17 10:01:15 51°21.694 3°6.495 20.3244 0.062965 0.360441 -3.020363
2011-05-17 10:02:14 51°21.895 3°6.472 20.3404 0.062965 0.360448 -3.020363
2011-05-17 10:03:14 51°22.1 3°6.465 20.3364 0.062862 0.359874 -3.020363
2011-05-17 10:04:14 51°22.305 3°6.499 20.3716 0.062862 0.359894 -3.020363
2011-05-17 10:05:14 51°22.509 3°6.553 20.3706 0.062862 0.359908 -3.020363
2011-05-17 10:06:13 51°22.712 3°6.611 20.3882 0.062862 0.359914 -3.020363
2011-05-17 10:07:15 51°22.923 3°6.685 20.3816 0.062862 0.359955 -3.020363
2011-05-17 10:08:14 51°23.116 3°6.807 20.4111 0.062862 0.359948 -3.020363
2011-05-17 10:09:14 51°23.313 3°6.929 20.4263 0.062862 0.359955 -3.020363
2011-05-17 10:10:14 51°23.511 3°7.041 20.4081 0.062862 0.359975 -3.020363
2011-05-17 10:11:13 51°23.712 3°7.117 20.4269 0.062862 0.359975 -3.020363
2011-05-17 10:12:15 51°23.925 3°7.16 20.4346 0.062862 0.360009 -3.020363
2011-05-17 10:13:14 51°24.124 3°7.151 20.434 0.062862 0.360009 -3.020363
2011-05-17 10:14:14 51°24.264 3°7.137 20.4552 0.062862 0.36003 -3.020363
2011-05-17 10:15:14 51°24.337 3°7.1 20.4675 0.062862 0.36005 -3.020363
2011-05-17 10:16:14 51°24.374 3°7.047 20.4613 0.062862 0.360064 -3.020363
2011-05-17 10:17:14 51°24.395 3°6.991 20.477 0.062862 0.360084 -3.020363
2011-05-17 10:18:14 51°24.41 3°6.931 20.4729 0.062862 0.360104 -3.020363
2011-05-17 10:19:15 51°24.422 3°6.869 20.4962 0.062862 0.360125 -3.020363
2011-05-17 10:20:13 51°24.437 3°6.819 20.4987 0.062862 0.360138 -3.020363
2011-05-17 10:21:14 51°24.452 3°6.763 20.5119 0.062862 0.360165 -3.020363
2011-05-17 10:22:14 51°24.472 3°6.706 20.5153 0.062862 0.360179 -3.020363
2011-05-17 10:23:14 51°24.488 3°6.646 20.5154 0.062862 0.360199 -3.020363
2011-05-17 10:24:14 51°24.499 3°6.585 20.5308 0.062862 0.36022 -3.020363
2011-05-17 10:25:13 51°24.505 3°6.524 20.5308 0.062862 0.36024 -3.020363
2011-05-17 10:26:14 51°24.51 3°6.462 20.5349 0.062862 0.360254 -3.020363
2011-05-17 10:27:13 51°24.517 3°6.405 20.5511 0.062862 0.360281 -3.020363
2011-05-17 10:28:14 51°24.526 3°6.347 20.5491 0.062862 0.360308 -3.020363
2011-05-17 10:29:14 51°24.535 3°6.291 20.5606 0.062862 0.360322 -3.020363
2011-05-17 10:30:15 51°24.543 3°6.233 20.576 0.062862 0.360335 -3.020363
2011-05-17 10:31:14 51°24.551 3°6.177 20.5705 0.062862 0.360355 -3.020363
2011-05-17 10:32:14 51°24.56 3°6.119 20.5793 0.062759 0.359761 -3.020363
2011-05-17 10:33:14 51°24.568 3°6.06 20.5899 0.062759 0.359781 -3.020363
2011-05-17 10:34:14 51°24.576 3°6.001 20.5916 0.062862 0.36041 -3.020363
2011-05-17 10:35:14 51°24.587 3°5.944 20.6005 0.062759 0.359815 -3.020363
2011-05-17 10:36:13 51°24.601 3°5.89 20.6121 0.062759 0.359835 -3.020363
2011-05-17 10:37:15 51°24.612 3°5.833 20.6108 0.062759 0.359855 -3.020363
2011-05-17 10:38:13 51°24.621 3°5.781 20.6216 0.062759 0.359862 -3.020363
2011-05-17 10:39:14 51°24.63 3°5.73 20.6238 0.062759 0.359889 -3.020363
2011-05-17 10:40:14 51°24.638 3°5.679 20.6371 0.062759 0.359903 -3.020363
2011-05-17 10:41:14 51°24.65 3°5.63 20.6391 0.062759 0.359923 -3.020363
2011-05-17 10:42:14 51°24.66 3°5.58 20.6565 0.062759 0.359937 -3.020363
2011-05-17 10:43:13 51°24.674 3°5.534 20.6478 0.062759 0.359957 -3.020363
2011-05-17 10:44:15 51°24.687 3°5.482 20.6539 0.062759 0.359971 -3.020363
2011-05-17 10:45:14 51°24.698 3°5.432 20.6724 0.062759 0.359984 -3.020363
2011-05-17 10:46:14 51°24.71 3°5.379 20.675 0.062759 0.360012 -3.020363
2011-05-17 10:47:14 51°24.722 3°5.328 20.6902 0.062759 0.360025 -3.020363
2011-05-17 10:48:15 51°24.734 3°5.275 20.6842 0.062759 0.360039 -3.020363
2011-05-17 10:49:13 51°24.746 3°5.228 20.7014 0.062759 0.360059 -3.020363
2011-05-17 10:50:14 51°24.759 3°5.181 20.7095 0.062759 0.36008 -3.020363
2011-05-17 10:51:13 51°24.776 3°5.136 20.716 0.062759 0.360093 -3.020363
2011-05-17 10:52:14 51°24.793 3°5.091 20.7162 0.062759 0.360107 -3.020363
2011-05-17 10:53:13 51°24.809 3°5.046 20.7168 0.062759 0.360134 -3.020363
2011-05-17 10:54:14 51°24.824 3°5 20.7414 0.062759 0.360148 -3.020363
2011-05-17 10:55:15 51°24.841 3°4.958 20.7379 0.062759 0.360161 -3.020363
2011-05-17 10:56:14 51°24.861 3°4.917 20.7541 0.062759 0.360182 -3.020363
2011-05-17 10:57:14 51°24.887 3°4.875 20.7501 0.062759 0.360195 -3.020363
2011-05-17 10:58:14 51°24.915 3°4.836 20.7697 0.062759 0.360216 -3.020363
2011-05-17 10:59:15 51°24.941 3°4.795 20.7775 0.062759 0.360229 -3.020363
2011-05-17 11:00:13 51°24.965 3°4.746 20.7784 0.062759 0.360243 -3.020363
2011-05-17 11:01:14 51°24.995 3°4.686 20.7834 0.062759 0.360256 -3.020363
2011-05-17 11:02:14 51°25.02 3°4.625 20.8047 0.062759 0.360284 -3.020363
2011-05-17 11:03:13 51°25.039 3°4.576 20.8023 0.062759 0.360297 -3.020363
2011-05-17 11:04:15 51°25.055 3°4.518 20.8075 0.062759 0.360311 -3.020363
2011-05-17 11:05:13 51°25.066 3°4.456 20.8089 0.062759 0.360324 -3.020363
2011-05-17 11:06:14 51°25.1 3°4.396 20.825 0.062759 0.360345 -3.020363
2011-05-17 11:07:13 51°25.162 3°4.371 20.8272 0.062759 0.360372 -3.020363
2011-05-17 11:08:14 51°25.244 3°4.381 20.8353 0.062759 0.360372 -3.020363
2011-05-17 11:09:13 51°25.331 3°4.429 20.8413 0.062759 0.360393 -3.020363
2011-05-17 11:10:13 51°25.409 3°4.53 20.829 0.062759 0.360406 -3.020363
2011-05-17 11:11:14 51°25.424 3°4.686 20.8279 0.062759 0.360433 -3.020363
2011-05-17 11:12:13 51°25.384 3°4.815 20.855 0.062759 0.360433 -3.020363
2011-05-17 11:13:14 51°25.333 3°4.981 20.8672 0.062657 0.359851 -3.020363
2011-05-17 11:14:14 51°25.281 3°5.16 20.8741 0.062657 0.359858 -3.020363
2011-05-17 11:15:14 51°25.229 3°5.342 20.885 0.062657 0.359871 -3.020363
2011-05-17 11:16:14 51°25.173 3°5.521 20.8934 0.062657 0.359878 -3.020363
2011-05-17 11:17:13 51°25.116 3°5.693 20.905 0.062657 0.359885 -3.020363
2011-05-17 11:18:13 51°25.057 3°5.867 20.8942 0.062657 0.359885 -3.020363
2011-05-17 11:19:15 51°25.001 3°6.054 20.893 0.062759 0.360515 -3.020363
2011-05-17 11:20:14 51°24.947 3°6.233 20.914 0.062759 0.360515 -3.020363
2011-05-17 11:21:14 51°24.89 3°6.412 20.9241 0.062657 0.359912 -3.020363
2011-05-17 11:22:15 51°24.836 3°6.582 20.9189 0.062657 0.359919 -3.020363
2011-05-17 11:23:14 51°24.792 3°6.737 20.9262 0.062657 0.359926 -3.020363
2011-05-17 11:24:15 51°24.748 3°6.892 20.9451 0.062657 0.359933 -3.020363
2011-05-17 11:25:14 51°24.705 3°7.043 20.9413 0.062657 0.359933 -3.020363
2011-05-17 11:26:14 51°24.662 3°7.197 20.9614 0.062657 0.359939 -3.020363
2011-05-17 11:27:13 51°24.619 3°7.38 20.9843 0.062759 0.360563 -3.020363
2011-05-17 11:28:13 51°24.672 3°7.597 20.9996 0.062759 0.36059 -3.020363
2011-05-17 11:29:14 51°24.802 3°7.658 20.9861 0.062657 0.359946 -3.020363
2011-05-17 11:30:13 51°24.995 3°7.647 20.9748 0.062657 0.359953 -3.020363
2011-05-17 11:31:15 51°25.216 3°7.634 20.9923 0.062657 0.359973 -3.020363
2011-05-17 11:32:13 51°25.427 3°7.627 21.0045 0.062759 0.36059 -3.020363
2011-05-17 11:33:15 51°25.654 3°7.629 21.0004 0.062759 0.360583 -3.020363
2011-05-17 11:34:14 51°25.871 3°7.625 21.0104 0.062657 0.360021 -3.020363
2011-05-17 11:35:15 51°26.094 3°7.617 21.0256 0.062657 0.360014 -3.020363
2011-05-17 11:36:14 51°26.31 3°7.616 21.0264 0.062657 0.360021 -3.020363
2011-05-17 11:37:14 51°26.532 3°7.614 21.0476 0.062657 0.360028 -3.020363
2011-05-17 11:38:14 51°26.741 3°7.546 21.0283 0.062657 0.360069 -3.020363
2011-05-17 11:39:13 51°26.941 3°7.452 21.032 0.062657 0.360096 -3.020363
2011-05-17 11:40:15 51°27.153 3°7.362 21.0399 0.062657 0.360096 -3.020363
2011-05-17 11:41:13 51°27.351 3°7.286 21.0746 0.062657 0.360137 -3.020363
2011-05-17 11:42:14 51°27.423 3°7.21 21.0686 0.062657 0.360185 -3.020363
2011-05-17 11:43:14 51°27.388 3°7.192 21.0613 0.062657 0.360171 -3.020363
2011-05-17 11:44:15 51°27.322 3°7.154 21.0638 0.062657 0.360185 -3.020363
2011-05-17 11:45:13 51°27.301 3°7.106 21.0865 0.062657 0.360219 -3.020363
2011-05-17 11:46:14 51°27.285 3°7.063 21.085 0.062657 0.360253 -3.020363
2011-05-17 11:47:14 51°27.259 3°7.013 21.0922 0.062657 0.36026 -3.020363
2011-05-17 11:48:14 51°27.242 3°6.944 21.0995 0.062657 0.360287 -3.020363
2011-05-17 11:49:15 51°27.211 3°6.89 21.1057 0.062657 0.360321 -3.020363
2011-05-17 11:50:14 51°27.169 3°6.855 21.108 0.062657 0.360335 -3.020363
2011-05-17 11:51:14 51°27.151 3°6.791 21.1086 0.062657 0.360369 -3.020363
2011-05-17 11:52:14 51°27.131 3°6.723 21.1186 0.062657 0.360396 -3.020363
2011-05-17 11:53:14 51°27.109 3°6.652 21.1256 0.062657 0.360423 -3.020363
2011-05-17 11:54:13 51°27.09 3°6.58 21.1225 0.062657 0.360458 -3.020363
2011-05-17 11:55:14 51°27.072 3°6.501 21.1373 0.062554 0.359874 -3.020363
2011-05-17 11:56:14 51°27.057 3°6.423 21.1464 0.062554 0.359901 -3.020363
2011-05-17 11:57:14 51°27.042 3°6.344 21.1606 0.062554 0.359929 -3.020363
2011-05-17 11:58:15 51°27.025 3°6.265 21.1618 0.062554 0.359956 -3.020363
2011-05-17 11:59:13 51°27.006 3°6.192 21.1701 0.062554 0.359976 -3.020363
2011-05-17 12:00:14 51°26.991 3°6.115 21.1722 0.062554 0.360004 -3.020363
2011-05-17 12:01:14 51°26.979 3°6.036 21.1686 0.062554 0.360038 -3.020363
2011-05-17 12:02:14 51°26.969 3°5.962 21.1774 0.062554 0.360065 -3.020363
2011-05-17 12:03:14 51°26.973 3°5.888 21.1872 0.062554 0.360092 -3.020363
2011-05-17 12:04:13 51°27.023 3°5.831 21.2029 0.062554 0.360126 -3.020363
2011-05-17 12:05:13 51°27.088 3°5.784 21.2054 0.062554 0.36014 -3.020363
2011-05-17 12:06:14 51°27.167 3°5.763 21.2098 0.062554 0.360174 -3.020363
2011-05-17 12:07:15 51°27.254 3°5.81 21.2089 0.062554 0.360195 -3.020363
2011-05-17 12:08:14 51°27.318 3°5.926 21.2106 0.062554 0.360215 -3.020363
2011-05-17 12:09:14 51°27.34 3°6.07 21.2245 0.062554 0.360236 -3.020363
2011-05-17 12:10:14 51°27.347 3°6.196 21.2276 0.062554 0.360249 -3.020363
2011-05-17 12:11:13 51°27.351 3°6.307 21.233 0.062554 0.36027 -3.020363
2011-05-17 12:12:14 51°27.353 3°6.419 21.2331 0.062554 0.360284 -3.020363
2011-05-17 12:13:14 51°27.35 3°6.526 21.2401 0.062554 0.36029 -3.020363
2011-05-17 12:14:14 51°27.35 3°6.634 21.2475 0.062554 0.360304 -3.020363
2011-05-17 12:15:14 51°27.356 3°6.744 21.2483 0.062554 0.360318 -3.020363
2011-05-17 12:16:15 51°27.372 3°6.857 21.2486 0.062554 0.360331 -3.020363
2011-05-17 12:17:13 51°27.401 3°6.961 21.2523 0.062554 0.360338 -3.020363
2011-05-17 12:18:14 51°27.44 3°7.063 21.2527 0.062554 0.360345 -3.020363
2011-05-17 12:19:14 51°27.481 3°7.163 21.2695 0.062554 0.360352 -3.020363
2011-05-17 12:20:14 51°27.512 3°7.267 21.2567 0.062554 0.360366 -3.020363
2011-05-17 12:21:14 51°27.531 3°7.371 21.2821 0.062554 0.360373 -3.020363
2011-05-17 12:22:14 51°27.54 3°7.472 21.2736 0.062554 0.360373 -3.020363
2011-05-17 12:23:14 51°27.54 3°7.565 21.2784 0.062554 0.360379 -3.020363
2011-05-17 12:24:13 51°27.531 3°7.648 21.2901 0.062554 0.360373 -3.020363
2011-05-17 12:25:15 51°27.517 3°7.722 21.2828 0.062554 0.360386 -3.020363
2011-05-17 12:26:14 51°27.509 3°7.782 21.288 0.062554 0.360393 -3.020363
2011-05-17 12:27:15 51°27.51 3°7.834 21.2964 0.062554 0.360393 -3.020363
2011-05-17 12:28:14 51°27.517 3°7.882 21.3022 0.062554 0.3604 -3.020363
2011-05-17 12:29:13 51°27.528 3°7.928 21.3174 0.062554 0.3604 -3.020363
2011-05-17 12:30:14 51°27.543 3°7.975 21.3024 0.062554 0.3604 -3.020363
2011-05-17 12:31:14 51°27.559 3°8.023 21.3235 0.062554 0.360407 -3.020363
2011-05-17 12:32:13 51°27.569 3°8.073 21.3298 0.062554 0.360407 -3.020363
2011-05-17 12:33:14 51°27.546 3°8.167 21.32 0.062554 0.36042 -3.020363
2011-05-17 12:34:14 51°27.496 3°8.283 21.3201 0.062554 0.36042 -3.020363
2011-05-17 12:35:14 51°27.427 3°8.346 21.3354 0.062554 0.360427 -3.020363
2011-05-17 12:36:15 51°27.363 3°8.329 21.3348 0.062554 0.360427 -3.020363
2011-05-17 12:37:13 51°27.307 3°8.287 21.3472 0.062554 0.360427 -3.020363
2011-05-17 12:38:14 51°27.267 3°8.211 21.3572 0.062554 0.360441 -3.020363
2011-05-17 12:39:14 51°27.24 3°8.121 21.371 0.062554 0.360455 -3.020363
2011-05-17 12:40:14 51°27.234 3°8.013 21.3705 0.062554 0.360475 -3.020363
2011-05-17 12:41:13 51°27.238 3°7.898 21.369 0.062554 0.360489 -3.020363
2011-05-17 12:42:14 51°27.242 3°7.78 21.3791 0.062554 0.36053 -3.020363
2011-05-17 12:43:14 51°27.247 3°7.665 21.3866 0.062451 0.359939 -3.020363
2011-05-17 12:44:14 51°27.255 3°7.546 21.385 0.062451 0.359966 -3.020363
2011-05-17 12:45:14 51°27.267 3°7.428 21.3901 0.062554 0.360598 -3.020363
2011-05-17 12:46:14 51°27.279 3°7.308 21.3881 0.062451 0.36 -3.020363
2011-05-17 12:47:13 51°27.286 3°7.192 21.3861 0.062451 0.360021 -3.020363
2011-05-17 12:48:14 51°27.279 3°7.075 21.3968 0.062451 0.360034 -3.020363
2011-05-17 12:49:13 51°27.277 3°6.96 21.4088 0.062451 0.360055 -3.020363
2011-05-17 12:50:13 51°27.28 3°6.84 21.4173 0.062451 0.360068 -3.020363
2011-05-17 12:51:14 51°27.282 3°6.719 21.4301 0.062451 0.360082 -3.020363
2011-05-17 12:52:14 51°27.279 3°6.6 21.4451 0.062451 0.360103 -3.020363
2011-05-17 12:53:13 51°27.276 3°6.484 21.4604 0.062451 0.360123 -3.020363
2011-05-17 12:54:15 51°27.281 3°6.358 21.4723 0.062451 0.360137 -3.020363
2011-05-17 12:55:14 51°27.284 3°6.238 21.4852 0.062451 0.360157 -3.020363
2011-05-17 12:56:14 51°27.272 3°6.123 21.5011 0.062451 0.360178 -3.020363
2011-05-17 12:57:13 51°27.251 3°6.013 21.5158 0.062451 0.360192 -3.020363
2011-05-17 12:58:14 51°27.23 3°5.898 21.5284 0.062451 0.360205 -3.020363
2011-05-17 12:59:14 51°27.211 3°5.783 21.546 0.062451 0.360226 -3.020363
2011-05-17 13:00:14 51°27.195 3°5.669 21.561 0.062451 0.360253 -3.020363
2011-05-17 13:01:13 51°27.182 3°5.554 21.5756 0.062451 0.360267 -3.020363
2011-05-17 13:02:14 51°27.203 3°5.434 21.5931 0.062451 0.360288 -3.020363
2011-05-17 13:03:14 51°27.286 3°5.365 21.6118 0.062451 0.360308 -3.020363
2011-05-17 13:04:13 51°27.39 3°5.416 21.6306 0.062451 0.360329 -3.020363
2011-05-17 13:05:15 51°27.446 3°5.564 21.6572 0.062451 0.360342 -3.020363
2011-05-17 13:06:14 51°27.447 3°5.707 21.6776 0.062451 0.360356 -3.020363
2011-05-17 13:07:13 51°27.439 3°5.85 21.7152 0.062451 0.36037 -3.020363
2011-05-17 13:08:14 51°27.431 3°5.999 21.7308 0.062451 0.360383 -3.020363
2011-05-17 13:09:13 51°27.423 3°6.144 21.74 0.062451 0.360383 -3.020363
2011-05-17 13:10:15 51°27.414 3°6.299 21.775 0.062348 0.359771 -3.020363
2011-05-17 13:11:14 51°27.411 3°6.451 21.8067 0.062451 0.360383 -3.020363
2011-05-17 13:12:15 51°27.469 3°6.677 21.8994 0.062451 0.360404 -3.020363
2011-05-17 13:13:14 51°27.648 3°6.799 21.8321 0.062451 0.360363 -3.020363
2011-05-17 13:14:13 51°27.862 3°6.767 21.9123 0.062451 0.36037 -3.020363
2011-05-17 13:15:13 51°28.004 3°6.533 21.8755 0.062451 0.360349 -3.020363
2011-05-17 13:16:14 51°28.098 3°6.244 21.8786 0.062451 0.360329 -3.020363
2011-05-17 13:17:14 51°28.188 3°5.955 21.9034 0.062451 0.360349 -3.020363
2011-05-17 13:18:14 51°28.232 3°5.655 21.9211 0.062451 0.360349 -3.020363
2011-05-17 13:19:14 51°28.24 3°5.347 21.9407 0.062451 0.360356 -3.020363
2011-05-17 13:20:14 51°28.269 3°5.041 21.9644 0.062451 0.360356 -3.020363
2011-05-17 13:21:14 51°28.3 3°4.736 21.9854 0.062451 0.360377 -3.020363
2011-05-17 13:22:13 51°28.325 3°4.436 22.006 0.062451 0.36039 -3.020363
2011-05-17 13:23:14 51°28.351 3°4.125 22.0296 0.062451 0.360404 -3.020363
2011-05-17 13:24:14 51°28.379 3°3.82 22.0513 0.062451 0.360418 -3.020363
2011-05-17 13:25:14 51°28.415 3°3.519 22.0799 0.062451 0.360445 -3.020363
2011-05-17 13:26:13 51°28.436 3°3.223 22.1041 0.062451 0.360459 -3.020363
2011-05-17 13:27:14 51°28.47 3°2.917 22.1385 0.062451 0.360486 -3.020363
2011-05-17 13:28:14 51°28.497 3°2.615 22.1659 0.062451 0.3605 -3.020363
2011-05-17 13:29:14 51°28.524 3°2.313 22.1843 0.062451 0.360527 -3.020363
2011-05-17 13:30:15 51°28.557 3°2.004 22.2044 0.062451 0.360541 -3.020363
2011-05-17 13:31:13 51°28.579 3°1.71 22.2279 0.062348 0.359949 -3.020363
2011-05-17 13:32:14 51°28.607 3°1.399 22.246 0.062348 0.359976 -3.020363
2011-05-17 13:33:14 51°28.637 3°1.093 22.2581 0.062348 0.359997 -3.020363
2011-05-17 13:34:14 51°28.666 3°0.785 22.2797 0.062348 0.360024 -3.020363
2011-05-17 13:35:15 51°28.691 3°0.473 21.5738 0.062348 0.360038 -3.020363
2011-05-17 13:36:13 51°28.711 3°0.176 21.6595 0.062348 0.360058 -3.020363
2011-05-17 13:37:14 51°28.744 2°59.867 21.6964 0.062348 0.360093 -3.020363
2011-05-17 13:38:14 51°28.802 2°59.575 21.6884 0.062348 0.360127 -3.020363
2011-05-17 13:39:14 51°28.834 2°59.277 21.7637 0.062348 0.360141 -3.020363
2011-05-17 13:40:13 51°28.866 2°59.051 21.7577 0.062348 0.360168 -3.020363
2011-05-17 13:41:14 51°28.901 2°58.955 21.7502 0.062348 0.360189 -3.020363
2011-05-17 13:42:14 51°28.93 2°58.916 21.7587 0.062348 0.360203 -3.020363
2011-05-17 13:43:13 51°28.959 2°58.904 21.8042 0.062348 0.360223 -3.020363
2011-05-17 13:44:14 51°28.989 2°58.904 21.7757 0.062348 0.360223 -3.020363
2011-05-17 13:45:13 51°29.02 2°58.893 21.8439 0.062348 0.360237 -3.020363
2011-05-17 13:46:14 51°29.05 2°58.871 21.8149 0.062348 0.360251 -3.020363
2011-05-17 13:47:14 51°29.075 2°58.843 21.8659 0.062348 0.360251 -3.020363
2011-05-17 13:48:15 51°29.1 2°58.811 21.8419 0.062348 0.360264 -3.020363
2011-05-17 13:49:14 51°29.131 2°58.777 21.8456 0.062348 0.360271 -3.020363
2011-05-17 13:50:14 51°29.163 2°58.74 21.8522 0.062348 0.360278 -3.020363
2011-05-17 13:51:14 51°29.192 2°58.701 21.9098 0.062348 0.360285 -3.020363
2011-05-17 13:52:14 51°29.218 2°58.663 21.8637 0.062348 0.360292 -3.020363
2011-05-17 13:53:14 51°29.243 2°58.623 21.8721 0.062348 0.360292 -3.020363
2011-05-17 13:54:14 51°29.275 2°58.586 21.8912 0.062348 0.360299 -3.020363
2011-05-17 13:55:14 51°29.307 2°58.547 21.8797 0.062348 0.360306 -3.020363
2011-05-17 13:56:14 51°29.341 2°58.511 21.8884 0.062348 0.360312 -3.020363
2011-05-17 13:57:15 51°29.365 2°58.475 21.8908 0.062348 0.360306 -3.020363
2011-05-17 13:58:14 51°29.365 2°58.446 21.9073 0.062348 0.360319 -3.020363
2011-05-17 13:59:14 51°29.327 2°58.405 21.9587 0.062348 0.360312 -3.020363
2011-05-17 14:00:14 51°29.283 2°58.342 21.9422 0.062348 0.360319 -3.020363
2011-05-17 14:01:15 51°29.241 2°58.265 21.9457 0.062348 0.36034 -3.020363
2011-05-17 14:02:14 51°29.192 2°58.213 21.9389 0.062348 0.360367 -3.020363
2011-05-17 14:03:14 51°29.133 2°58.2 21.9427 0.062348 0.360388 -3.020363
2011-05-17 14:04:14 51°29.073 2°58.19 21.9602 0.062348 0.360422 -3.020363
2011-05-17 14:05:13 51°29.016 2°58.178 21.9661 0.062348 0.36045 -3.020363
2011-05-17 14:06:14 51°28.958 2°58.155 21.9663 0.062348 0.360477 -3.020363
2011-05-17 14:07:14 51°28.902 2°58.128 21.9583 0.062348 0.360505 -3.020363
2011-05-17 14:08:14 51°28.844 2°58.108 21.971 0.062245 0.359918 -3.020363
2011-05-17 14:09:13 51°28.784 2°58.097 21.9772 0.062245 0.359946 -3.020363
2011-05-17 14:10:14 51°28.72 2°58.102 21.9722 0.062245 0.359973 -3.020363
2011-05-17 14:11:14 51°28.665 2°58.133 21.983 0.062245 0.359994 -3.020363
2011-05-17 14:12:14 51°28.619 2°58.166 21.9872 0.062245 0.360021 -3.020363
2011-05-17 14:13:14 51°28.58 2°58.194 21.9854 0.062245 0.360042 -3.020363
2011-05-17 14:14:14 51°28.548 2°58.219 21.9818 0.062245 0.360076 -3.020363
2011-05-17 14:15:14 51°28.517 2°58.249 21.9836 0.062245 0.360097 -3.020363
2011-05-17 14:16:13 51°28.485 2°58.291 21.9911 0.062245 0.360111 -3.020363
2011-05-17 14:17:14 51°28.451 2°58.335 21.9975 0.062245 0.360131 -3.020363
2011-05-17 14:18:14 51°28.418 2°58.377 21.9959 0.062245 0.360145 -3.020363
2011-05-17 14:19:14 51°28.387 2°58.415 22.0028 0.062245 0.360173 -3.020363
2011-05-17 14:20:13 51°28.359 2°58.438 22.004 0.062245 0.360179 -3.020363
2011-05-17 14:21:14 51°28.334 2°58.437 22.01 0.062245 0.360193 -3.020363
2011-05-17 14:22:14 51°28.327 2°58.368 22.0067 0.062245 0.360214 -3.020363
2011-05-17 14:23:14 51°28.39 2°58.303 21.9888 0.062245 0.360234 -3.020363
2011-05-17 14:24:15 51°28.48 2°58.252 21.9928 0.062245 0.360262 -3.020363
2011-05-17 14:25:14 51°28.549 2°58.174 21.99 0.062245 0.360296 -3.020363
2011-05-17 14:26:14 51°28.599 2°58.079 21.9998 0.062245 0.360303 -3.020363
2011-05-17 14:27:14 51°28.627 2°57.977 21.999 0.062245 0.360317 -3.020363
2011-05-17 14:28:14 51°28.631 2°57.879 22.0097 0.062245 0.360331 -3.020363
2011-05-17 14:29:14 51°28.633 2°57.775 22.0088 0.062245 0.360351 -3.020363
2011-05-17 14:30:14 51°28.652 2°57.665 22.0116 0.062245 0.360379 -3.020363
2011-05-17 14:31:15 51°28.693 2°57.556 22.0099 0.062245 0.3604 -3.020363
2011-05-17 14:32:14 51°28.734 2°57.453 22.0002 0.062245 0.36042 -3.020363
2011-05-17 14:33:14 51°28.743 2°57.346 21.9973 0.062245 0.360434 -3.020363
2011-05-17 14:34:14 51°28.64 2°57.247 22.0231 0.062143 0.359819 -3.020363
2011-05-17 14:35:15 51°28.464 2°57.162 22.0233 0.062245 0.360448 -3.020363
2011-05-17 14:36:14 51°28.287 2°57.1 22.0262 0.062143 0.359854 -3.020363
2011-05-17 14:37:14 51°28.111 2°57.015 22.0262 0.062245 0.360503 -3.020363
2011-05-17 14:38:14 51°27.924 2°56.985 22.0244 0.062245 0.360537 -3.020363
2011-05-17 14:39:14 51°27.735 2°56.972 22.0295 0.062143 0.359943 -3.020363
2011-05-17 14:40:14 51°27.547 2°56.927 22.0259 0.062143 0.359991 -3.020363
2011-05-17 14:41:14 51°27.363 2°56.856 22.0285 0.062143 0.360019 -3.020363
2011-05-17 14:42:14 51°27.178 2°56.793 22.0291 0.062143 0.360067 -3.020363
2011-05-17 14:43:14 51°26.992 2°56.742 22.0316 0.062143 0.360101 -3.020363
2011-05-17 14:44:14 51°26.806 2°56.676 22.0292 0.062143 0.360129 -3.020363
2011-05-17 14:45:14 51°26.62 2°56.608 22.0297 0.062143 0.360163 -3.020363
2011-05-17 14:46:15 51°26.431 2°56.542 22.0388 0.062143 0.360198 -3.020363
2011-05-17 14:47:14 51°26.246 2°56.476 22.03 0.062143 0.360239 -3.020363
2011-05-17 14:48:14 51°26.06 2°56.403 22.0363 0.062143 0.360274 -3.020363
2011-05-17 14:49:14 51°25.874 2°56.339 22.0379 0.062143 0.360308 -3.020363
2011-05-17 14:50:13 51°25.691 2°56.271 22.0434 0.062143 0.360356 -3.020363
2011-05-17 14:51:14 51°25.502 2°56.194 22.0394 0.062143 0.360384 -3.020363
2011-05-17 14:52:14 51°25.315 2°56.129 22.0406 0.062143 0.360419 -3.020363
2011-05-17 14:53:13 51°25.13 2°56.061 22.0449 0.062143 0.360425 -3.020363
2011-05-17 14:54:14 51°24.935 2°55.991 22.0457 0.06204 0.359837 -3.020363
2011-05-17 14:55:13 51°24.751 2°55.912 22.0467 0.062143 0.360467 -3.020363
2011-05-17 14:56:14 51°24.558 2°55.841 22.0486 0.06204 0.359865 -3.020363
2011-05-17 14:57:14 51°24.367 2°55.778 22.0492 0.06204 0.359879 -3.020363
2011-05-17 14:58:13 51°24.182 2°55.704 22.0518 0.06204 0.359885 -3.020363
2011-05-17 14:59:14 51°23.989 2°55.637 22.053 0.06204 0.359899 -3.020363
2011-05-17 15:00:14 51°23.801 2°55.558 22.0525 0.06204 0.359899 -3.020363
2011-05-17 15:01:14 51°23.616 2°55.475 22.0543 0.06204 0.359913 -3.020363
2011-05-17 15:02:14 51°23.43 2°55.392 22.0557 0.06204 0.359927 -3.020363
2011-05-17 15:03:13 51°23.246 2°55.313 22.0577 0.06204 0.359927 -3.020363
2011-05-17 15:04:14 51°23.055 2°55.232 22.0594 0.06204 0.359948 -3.020363
2011-05-17 15:05:14 51°22.864 2°55.158 22.0614 0.06204 0.359948 -3.020363
2011-05-17 15:06:14 51°22.672 2°55.079 22.0627 0.06204 0.359961 -3.020363
2011-05-17 15:07:15 51°22.479 2°54.982 22.0638 0.06204 0.359975 -3.020363
2011-05-17 15:08:14 51°22.291 2°54.893 22.0661 0.06204 0.359968 -3.020363
2011-05-17 15:09:15 51°22.094 2°54.815 22.067 0.06204 0.359975 -3.020363
2011-05-17 15:10:13 51°21.908 2°54.724 22.0693 0.06204 0.359989 -3.020363
2011-05-17 15:11:15 51°21.709 2°54.632 22.0698 0.06204 0.359996 -3.020363
2011-05-17 15:12:14 51°21.52 2°54.542 22.0727 0.06204 0.359996 -3.020363
2011-05-17 15:13:13 51°21.335 2°54.443 22.0742 0.06204 0.359996 -3.020363
2011-05-17 15:14:14 51°21.142 2°54.352 22.0764 0.06204 0.360016 -3.020363
2011-05-17 15:15:13 51°20.956 2°54.258 22.0775 0.06204 0.360016 -3.020363
2011-05-17 15:16:14 51°20.765 2°54.152 22.0808 0.06204 0.360016 -3.020363
2011-05-17 15:17:13 51°20.578 2°54.061 22.0798 0.06204 0.360023 -3.020363
2011-05-17 15:18:14 51°20.387 2°53.957 22.0806 0.06204 0.360023 -3.020363
2011-05-17 15:19:14 51°20.203 2°53.841 22.0831 0.06204 0.360023 -3.020363
2011-05-17 15:20:14 51°20.011 2°53.753 22.0853 0.06204 0.36003 -3.020363
2011-05-17 15:21:14 51°19.818 2°53.661 22.0892 0.06204 0.360037 -3.020363
2011-05-17 15:22:13 51°19.634 2°53.552 22.0887 0.06204 0.36003 -3.020363
2011-05-17 15:23:14 51°19.447 2°53.425 22.0938 0.06204 0.360037 -3.020363
2011-05-17 15:24:13 51°19.263 2°53.311 22.0905 0.06204 0.360037 -3.020363
2011-05-17 15:25:14 51°19.07 2°53.203 22.0965 0.06204 0.360051 -3.020363
2011-05-17 15:26:14 51°18.882 2°53.086 22.0978 0.06204 0.360044 -3.020363
2011-05-17 15:27:14 51°18.694 2°52.965 22.0974 0.06204 0.360044 -3.020363
2011-05-17 15:28:13 51°18.51 2°52.848 22.1006 0.06204 0.360044 -3.020363
2011-05-17 15:29:14 51°18.313 2°52.756 22.1026 0.06204 0.360051 -3.020363
2011-05-17 15:30:14 51°18.115 2°52.688 22.1071 0.06204 0.360051 -3.020363
2011-05-17 15:31:14 51°17.916 2°52.644 22.1052 0.06204 0.360051 -3.020363
2011-05-17 15:32:13 51°17.721 2°52.603 22.1122 0.06204 0.360051 -3.020363
2011-05-17 15:33:14 51°17.518 2°52.571 22.1151 0.06204 0.360051 -3.020363
2011-05-17 15:34:15 51°17.314 2°52.592 22.1173 0.06204 0.360044 -3.020363
2011-05-17 15:35:14 51°17.12 2°52.673 22.1188 0.06204 0.360051 -3.020363
2011-05-17 15:36:14 51°16.926 2°52.768 22.1211 0.06204 0.360051 -3.020363
2011-05-17 15:37:14 51°16.746 2°52.921 22.1212 0.06204 0.360065 -3.020363
2011-05-17 15:38:13 51°16.56 2°53.057 22.1167 0.06204 0.360044 -3.020363
2011-05-17 15:39:14 51°16.362 2°53.167 22.1197 0.06204 0.36003 -3.020363
2011-05-17 15:40:13 51°16.17 2°53.264 22.1359 0.06204 0.360044 -3.020363
2011-05-17 15:41:14 51°15.974 2°53.382 22.1346 0.06204 0.360044 -3.020363
2011-05-17 15:42:14 51°15.785 2°53.526 22.1258 0.06204 0.36003 -3.020363
2011-05-17 15:43:14 51°15.6 2°53.677 22.1419 0.06204 0.360037 -3.020363
2011-05-17 15:44:13 51°15.432 2°53.87 22.1315 0.06204 0.36003 -3.020363
2011-05-17 15:45:14 51°15.259 2°54.07 22.1267 0.06204 0.360016 -3.020363
2011-05-17 15:46:13 51°15.102 2°54.276 22.1358 0.06204 0.36003 -3.020363
2011-05-17 15:47:13 51°14.944 2°54.471 22.1327 0.06204 0.360023 -3.020363
2011-05-17 15:48:15 51°14.778 2°54.663 22.1355 0.06204 0.36003 -3.020363
2011-05-17 15:49:15 51°14.619 2°54.852 22.159 0.06204 0.360016 -3.020363
2011-05-17 15:50:13 51°14.471 2°55.048 22.148 0.06204 0.360023 -3.020363
2011-05-17 15:51:15 51°14.316 2°55.231 22.1538 0.06204 0.360023 -3.020363
2011-05-17 15:52:17 51°14.157 2°55.384 22.1568 0.06204 0.36003 -3.020363
2011-05-17 15:53:17 51°14.013 2°55.494 22.1751 0.06204 0.36003 -3.020363
2011-05-17 15:54:17 51°13.889 2°55.584 22.1775 0.06204 0.36003 -3.020363
2011-05-17 15:55:14 51°13.797 2°55.658 22.1858 0.06204 0.36003 -3.020363
2011-05-17 15:56:14 51°13.723 2°55.769 22.1886 0.06204 0.360037 -3.020363
2011-05-17 15:57:14 51°13.672 2°55.88 22.1859 0.06204 0.36003 -3.020363
2011-05-17 15:58:14 51°13.636 2°55.974 22.1914 0.06204 0.360037 -3.020363
2011-05-17 15:59:13 51°13.619 2°56.051 22.1915 0.06204 0.360037 -3.020363